Grand Forks AFB, ND

5:58 PM CST on January 17, 2017 (GMT -0600)
Grand Forks Air Force Base

Weather History for KRDR - March, 2013

Change the Weather History Date:

Sunday, March 3, 2013

  Actual Average Record
Temperature  
Mean Temperature 22 °F -  
Max Temperature 30 °F 21 °F 37 °F (2005)
Min Temperature 15 °F 4 °F -14 °F (2014)
Degree Days  
Heating Degree Days 42    
Moisture  
Dew Point 19 °F    
Average Humidity 79    
Maximum Humidity 87    
Minimum Humidity 60    
Precipitation  
Precipitation 0.00 in - - ()
Sea Level Pressure  
Sea Level Pressure 29.95 in    
Wind  
Wind Speed 11 mph (SSE)    
Max Wind Speed 22 mph    
Max Gust Speed 28 mph    
Visibility 7 miles    
Events Snow    
Averages and records for this station are not official NWS values.
T = Trace of Precipitation, MM = Missing Value Source: NWS Daily Summary

Daily Weather History Graph

Daily Weather History Graph

Search for Another Location

Airport or City:

Trip Planner

Search our weather history database for the weather conditions in past years. The results will help you decide how hot, cold, wet, or windy it might be!

Date:

Astronomy

Mar. 03, 2013 Rise Set
Actual Time 7:06 AM CST 6:17 PM CST
Civil Twilight 6:35 AM CST 6:48 PM CST
Nautical Twilight 5:59 AM CST 7:24 PM CST
Astronomical Twilight 5:23 AM CST 8:00 PM CST
Moon 12:25 AM CST (3/3) 9:52 AM CST (3/3)
Length of Visible Light 12h 13m
Length of Day
11h 11m
Waning Gibbous, 63% of the Moon is Illuminated
Mar 3
Waning Gibbous
Mar 4
Last Quarter
Mar 11
New
Mar 19
First Quarter
Mar 27
Full

Hourly Weather History & Observations

Time (CST) Temp. Windchill Dew Point Humidity Pressure Visibility Wind Dir Wind Speed Gust Speed Precip Events Conditions
12:10 AM 21.2 °F 12.6 °F 17.6 °F 86% 30.08 in 10.0 mi South 6.9 mph - N/A   Overcast
12:55 AM 21.7 °F 12.3 °F 16.9 °F 82% 30.07 in 10.0 mi South 8.1 mph - N/A   Overcast
1:55 AM 21.4 °F 12.8 °F 16.9 °F 83% 30.06 in 10.0 mi South 6.9 mph - N/A   Overcast
2:23 AM 21.2 °F 11.7 °F 15.8 °F 80% 30.06 in 10.0 mi South 8.1 mph - N/A   Overcast
2:55 AM 21.2 °F 13.6 °F 16.3 °F 82% 30.05 in 10.0 mi SSW 5.8 mph - N/A   Overcast
3:55 AM 21.0 °F 13.4 °F 16.3 °F 82% 30.04 in 10.0 mi South 5.8 mph - N/A   Overcast
4:55 AM 20.7 °F 13.0 °F 16.2 °F 83% 30.02 in 10.0 mi SSE 5.8 mph - N/A   Overcast
5:49 AM 19.4 °F 10.4 °F 15.8 °F 86% 30.03 in 10.0 mi SSE 6.9 mph - N/A   Overcast
5:55 AM 20.1 °F 11.3 °F 15.4 °F 82% 30.03 in 10.0 mi SSE 6.9 mph - N/A   Overcast
6:55 AM 19.0 °F 7.5 °F 14.4 °F 82% 30.01 in 10.0 mi South 10.4 mph - N/A   Overcast
7:55 AM 15.1 °F 2.5 °F 9.3 °F 78% 30.01 in 10.0 mi SSE 10.4 mph - N/A   Overcast
8:29 AM 15.8 °F 3.4 °F 8.6 °F 73% 30.00 in 10.0 mi SSE 10.4 mph - N/A   Scattered Clouds
8:55 AM 17.2 °F 6.0 °F 10.6 °F 75% 30.00 in 10.0 mi SSE 9.2 mph - N/A   Partly Cloudy
8:58 AM 17.6 °F 6.4 °F 10.4 °F 73% 30.00 in 10.0 mi SSE 9.2 mph - N/A   Scattered Clouds
9:06 AM 17.6 °F 5.7 °F 10.4 °F 73% 30.00 in 10.0 mi SSE 10.4 mph - N/A   Mostly Cloudy
9:23 AM 17.6 °F 5.7 °F 12.2 °F 79% 29.99 in 10.0 mi SSE 10.4 mph - N/A   Overcast
9:55 AM 19.8 °F 7.7 °F 14.2 °F 79% 29.98 in 10.0 mi South 11.5 mph - N/A   Overcast
10:30 AM 21.2 °F 8.9 °F 14.0 °F 74% 29.97 in 10.0 mi South 12.7 mph - N/A   Overcast
10:55 AM 21.7 °F 9.0 °F 15.1 °F 76% 29.98 in 10.0 mi South 13.8 mph - N/A   Overcast
11:04 AM 21.2 °F 9.5 °F 15.8 °F 80% 29.98 in 10.0 mi South 11.5 mph - N/A   Overcast
11:55 AM 23.9 °F 12.3 °F 17.1 °F 75% 29.97 in 10.0 mi South 12.7 mph - N/A   Overcast
12:04 PM 24.8 °F 14.0 °F 17.6 °F 74% 29.97 in 10.0 mi South 11.5 mph - N/A   Overcast
12:42 PM 24.8 °F 14.6 °F 19.4 °F 80% 29.96 in 10.0 mi SSE 10.4 mph - N/A   Overcast
12:55 PM 24.8 °F 14.0 °F 18.5 °F 77% 29.96 in 10.0 mi SSE 11.5 mph - N/A   Overcast
1:20 PM 24.8 °F 13.4 °F 19.4 °F 80% 29.94 in 10.0 mi South 12.7 mph - N/A   Overcast
1:55 PM 25.5 °F 13.3 °F 19.0 °F 76% 29.93 in 10.0 mi SSE 15.0 mph - N/A   Overcast
2:55 PM 26.2 °F 14.7 °F 19.8 °F 76% 29.91 in 10.0 mi SSE 13.8 mph - N/A   Mostly Cloudy
3:55 PM 27.9 °F 19.1 °F 20.3 °F 73% 29.90 in 10.0 mi SE 9.2 mph - N/A   Mostly Cloudy
4:55 PM 29.7 °F 19.1 °F 19.2 °F 65% 29.90 in 10.0 mi SSE 13.8 mph - N/A   Overcast
5:09 PM 30.2 °F 17.8 °F 17.6 °F 60% 29.89 in 10.0 mi SSE 19.6 mph - N/A   Overcast
5:55 PM 29.1 °F 17.9 °F 17.6 °F 62% 29.89 in 10.0 mi SSE 15.0 mph - N/A   Mostly Cloudy
6:55 PM 28.8 °F 18.4 °F 17.4 °F 63% 29.90 in 10.0 mi SSE 12.7 mph - N/A   Clear
7:28 PM 28.4 °F 15.4 °F 19.4 °F 69% 29.90 in 9.0 mi South 19.6 mph - N/A   Mostly Cloudy
7:32 PM 28.4 °F 15.1 °F 19.4 °F 69% 29.91 in 8.0 mi South 20.7 mph 27.6 mph N/A   Mostly Cloudy
7:40 PM 28.4 °F 15.4 °F 19.4 °F 69% 29.91 in 7.0 mi SSE 19.6 mph 26.5 mph N/A   Overcast
7:55 PM 27.7 °F 14.5 °F 20.7 °F 75% 29.91 in 5.0 mi SSE 19.6 mph - 0.00 in   Overcast
7:56 PM 28.4 °F 14.7 °F 19.4 °F 69% 29.91 in 6.0 mi South 21.9 mph - N/A   Haze
8:02 PM 28.4 °F 16.2 °F 21.2 °F 74% 29.91 in 5.0 mi SSE 17.3 mph - N/A   Overcast
8:04 PM 28.4 °F 15.8 °F 21.2 °F 74% 29.91 in 4.0 mi South 18.4 mph - N/A   Overcast
8:08 PM 26.6 °F 15.2 °F 21.2 °F 80% 29.91 in 3.0 mi South 13.8 mph 24.2 mph N/A Snow Light Snow
8:09 PM 26.6 °F 14.7 °F 21.2 °F 80% 29.91 in 2.5 mi South 15.0 mph 24.2 mph N/A Snow Light Snow
8:11 PM 26.6 °F 15.2 °F 21.2 °F 80% 29.91 in 2.5 mi SSE 13.8 mph 24.2 mph N/A Snow Light Snow
8:13 PM 26.6 °F 14.3 °F 23.0 °F 86% 29.91 in 2.0 mi SSE 16.1 mph - N/A Snow Light Snow
8:21 PM 26.6 °F 14.3 °F 23.0 °F 86% 29.91 in 2.0 mi SSE 16.1 mph - N/A Snow Light Snow
8:30 PM 26.6 °F 15.2 °F 23.0 °F 86% 29.91 in 1.8 mi SSE 13.8 mph - N/A Snow Light Snow
8:36 PM 26.6 °F 15.2 °F 23.0 °F 86% 29.91 in 2.0 mi SSE 13.8 mph - N/A Snow Light Snow
8:38 PM 26.6 °F 15.7 °F 23.0 °F 86% 29.91 in 2.0 mi SSE 12.7 mph - N/A Snow Light Snow
8:42 PM 26.6 °F 15.2 °F 23.0 °F 86% 29.91 in 3.0 mi SSE 13.8 mph - N/A Snow Light Snow
8:47 PM 26.6 °F 15.7 °F 23.0 °F 86% 29.91 in 3.0 mi SSE 12.7 mph - N/A Snow Light Snow
8:53 PM 26.6 °F 14.7 °F 23.0 °F 86% 29.91 in 4.0 mi SSE 15.0 mph - N/A Snow Light Snow
8:55 PM 26.2 °F 14.2 °F 22.8 °F 87% 29.91 in 4.0 mi SSE 15.0 mph - 0.00 in Snow Light Snow
9:19 PM 26.6 °F 15.7 °F 23.0 °F 86% 29.91 in 4.0 mi SSE 12.7 mph - N/A Snow Light Snow
9:26 PM 26.6 °F 13.8 °F 23.0 °F 86% 29.91 in 5.0 mi SSE 17.3 mph - N/A   Haze
9:29 PM 26.6 °F 14.3 °F 21.2 °F 80% 29.91 in 5.0 mi SSE 16.1 mph - N/A   Haze
9:55 PM 26.6 °F 14.3 °F 21.7 °F 82% 29.90 in 7.0 mi SSE 16.1 mph - 0.00 in   Overcast
10:36 PM 26.6 °F 15.2 °F 23.0 °F 86% 29.90 in 6.0 mi SE 13.8 mph 21.9 mph N/A   Overcast
10:48 PM 26.6 °F 14.3 °F 21.2 °F 80% 29.90 in 5.0 mi SE 16.1 mph - N/A   Overcast
10:55 PM 26.2 °F 13.4 °F 21.9 °F 84% 29.89 in 4.0 mi SE 17.3 mph - 0.00 in   Overcast
11:04 PM 26.6 °F 14.7 °F 21.2 °F 80% 29.89 in 5.0 mi SE 15.0 mph - N/A   Overcast
11:12 PM 26.6 °F 16.8 °F 21.2 °F 80% 29.90 in 6.0 mi SE 10.4 mph - N/A   Haze
11:25 PM 26.6 °F 15.7 °F 23.0 °F 86% 29.90 in 6.0 mi SE 12.7 mph - N/A   Overcast
11:37 PM 26.6 °F 15.7 °F 21.2 °F 80% 29.90 in 6.0 mi SE 12.7 mph - N/A   Haze
11:55 PM 26.4 °F 15.0 °F 21.7 °F 82% 29.90 in 6.0 mi SE 13.8 mph - 0.00 in   Haze